OOMS

Muscat International Airport

Airport
ICAO code
OOMS
IATA Code
MCT
Summary
ICAO Region
MID
ICAO Territory
Location

Seeb, Muscat

Serving
Muscat
Coordinates
23° 35' 36" N , 58° 16' 54" E
KCC
Metar
Observation
OOMS 280650Z 28009KT 9999 BKN025 21/15 Q1017 NOSIG
Station
Seeb, International Airport
Date/Time
2023-01-28 06:50:00
Wind direction
280°
Wind speed
09 kts
Lowest cloud amount
broken clouds
Temperature
21°C
Dew point
15°C
Humidity
68%
QNH
1017 hPa
Weather condition
n/a

International airport serving Muscat, the capital of Oman.

Climatology

Hot Desert Climate (Köppen climate classification BWh)

Runways

Designator Length Width Surface Rops
2/20 750 30 GRE Yes/Yes
8/26 3589 45 ASP Yes/Yes

Airport map

Aerial View

SKYbrary Partners:

Safety knowledge contributed by: